Location: Unspecified
(54.1780°N, 0.0000°E)
Time: 04:55:00
(UTC+00:00)

Explorer 7 - Pass Details

Date: 17 August 2020
Orbit: 484 x 679 km, 50.3° (Epoch: 26 September)

Event Time Altitude Azimuth Distance (km) Brightness Sun altitude
Rises 20:53:05 0° 271° (W) 2,662 11.1 -11.6°
Reaches altitude 10° 20:55:26 10° 264° (W) 1,744 10.0 -11.8°
Maximum altitude 20:59:06 39° 195° (SSW) 763 7.3 -12.2°
Enters shadow 21:01:12 21° 137° (SE) 1,169 7.8 -12.4°
